FW5697 Weather Reports


time (UTC)temp
C
wind
direction
speed
KPH
gust
KPH
rain 1hr
cm
rain 24hr
cm
rain mn
cm
humidity
%
barometer
mb
20260905130040 23 0 0.0 0.0 0.00 0.00 0.00 97 1014.8
20260905124536 23 0 0.0 0.0 0.00 0.00 0.00 97 1014.8
20260905123037 22 0 0.0 0.0 0.00 0.00 0.00 97 1014.9
20260905121537 22 0 0.0 0.0 0.00 0.00 0.00 97 1014.6
20260905120039 22 0 0.0 0.0 0.00 0.00 0.00 97 1014.6
20260905114536 22 0 0.0 0.0 0.00 0.00 0.00 97 1014.7
20260905113035 22 0 0.0 0.0 0.00 0.00 0.00 96 1014.6
20260905111557 22 0 0.0 0.0 0.00 0.00 0.00 96 1014.4
20260905110035 22 0 0.0 0.0 0.00 0.00 0.00 96 1014.3
20260905104536 22 0 0.0 0.0 0.00 0.00 0.00 96 1014.1
20260905103034 22 0 0.0 0.0 0.00 0.00 0.00 96 1014.0
20260905101535 22 0 0.0 0.0 0.00 0.00 0.00 96 1014.1
20260905100036 22 0 0.0 0.0 0.00 0.00 0.00 96 1014.1
20260905094536 22 0 0.0 0.0 0.00 0.00 0.00 96 1014.0
20260905093036 22 0 0.0 0.0 0.00 0.00 0.00 96 1014.0
20260905091534 22 0 0.0 0.0 0.00 0.00 0.00 96 1014.0
20260905090035 22 0 0.0 0.0 0.00 0.00 0.00 95 1014.0
20260905084536 22 0 0.0 0.0 0.00 0.00 0.00 95 1014.0
20260905083032 22 0 0.0 0.0 0.00 0.00 0.00 95 1013.9
20260905081534 23 0 0.0 0.0 0.00 0.00 0.00 95 1014.0
20260905080035 23 0 0.0 0.0 0.00 0.00 0.00 94 1013.9
20260905074533 23 0 0.0 0.0 0.00 0.00 0.00 94 1013.8
20260905073053 23 0 0.0 0.0 0.00 0.00 0.00 94 1013.8
20260905071542 23 0 0.0 0.0 0.00 0.00 0.00 93 1013.6
20260905070037 23 0 0.0 0.0 0.00 0.00 0.00 94 1013.5
20260905064536 23 0 0.0 0.0 0.00 0.00 0.00 93 1013.8
20260905063036 23 0 0.0 0.0 0.00 0.00 0.00 92 1014.1
20260905061537 23 0 0.0 0.0 0.00 0.00 0.00 92 1014.2
20260905060037 24 0 0.0 0.0 0.00 0.00 0.00 92 1014.3
20260905054542 24 0 0.0 0.0 0.00 0.00 0.00 91 1014.6
20260905053040 24 0 0.0 0.0 0.00 0.00 0.00 90 1014.6
20260905051535 25 0 0.0 0.0 0.00 0.00 0.00 90 1014.6
20260905050031 25 0 0.0 0.0 0.00 0.00 0.00 90 1014.6
20260905044533 24 0 0.0 0.0 0.00 0.00 0.00 90 1014.7
20260905043035 24 0 0.0 0.0 0.00 0.00 0.00 90 1014.7
20260905041533 25 0 0.0 0.0 0.00 0.00 0.00 88 1014.7
20260905040037 25 0 0.0 0.0 0.00 0.00 0.00 88 1014.7
20260905034535 25 0 0.0 0.0 0.00 0.00 0.00 86 1014.9
20260905033048 25 0 0.0 0.0 0.00 0.00 0.00 85 1014.7
20260905031543 25 0 0.0 0.0 0.00 0.00 0.00 87 1014.9
20260905030032 25 0 0.0 0.0 0.00 0.00 0.00 87 1014.9
20260905024534 25 0 0.0 0.0 0.00 0.00 0.00 86 1015.0
20260905023041 25 0 0.0 0.0 0.00 0.00 0.00 86 1015.2
20260905021538 25 0 0.0 0.0 0.00 0.00 0.00 85 1015.2
20260905020036 26 0 0.0 0.0 0.00 0.00 0.00 84 1015.2
20260905014535 26 0 0.0 0.0 0.00 0.00 0.00 83 1015.5
20260905013036 26 0 0.0 0.0 0.00 0.00 0.00 81 1015.4
20260905011535 27 0 0.0 0.0 0.00 0.00 0.00 79 1015.2
20260905010034 27 0 0.0 0.0 0.00 0.00 0.00 78 1015.1
20260905004537 27 0 0.0 0.0 0.00 0.00 0.00 75 1014.7
20260905003036 28 0 0.0 0.0 0.00 0.00 0.00 74 1014.6
20260905001535 28 0 0.0 0.0 0.00 0.00 0.00 73 1014.5
20260905000034 29 0 0.0 0.0 0.00 0.00 0.00 68 1014.2
20260904234534 30 0 0.0 0.0 0.00 0.00 0.00 64 1014.2
20260904233035 31 0 0.0 0.0 0.00 0.00 0.00 60 1014.1
20260904231539 32 0 0.0 0.0 0.00 0.00 0.00 57 1014.0
20260904230037 33 0 0.0 0.0 0.00 0.00 0.00 54 1013.9
20260904224551 33 0 0.0 0.0 0.00 0.00 0.00 52 1013.9
20260904223037 34 0 0.0 0.0 0.00 0.00 0.00 50 1014.1
20260904221536 34 0 0.0 0.0 0.00 0.00 0.00 52 1014.1
20260904220038 35 0 0.0 1.6 0.00 0.00 0.00 50 1014.2
20260904214542 35 0 0.0 0.0 0.00 0.00 0.00 50 1014.1
20260904213037 35 0 0.0 0.0 0.00 0.00 0.00 52 1014.1
20260904211536 34 0 0.0 4.8 0.00 0.00 0.00 52 1014.1
20260904210043 34 0 0.0 4.8 0.00 0.00 0.00 52 1014.2
20260904204535 35 0 0.0 3.2 0.00 0.00 0.00 54 1014.1
20260904203032 34 0 0.0 4.8 0.00 0.00 0.00 52 1014.4
20260904201537 34 0 0.0 8.0 0.00 0.00 0.00 54 1014.6
20260904200035 33 0 0.0 3.2 0.00 0.00 0.00 56 1014.9
20260904194540 33 62 0.0 4.8 0.00 0.00 0.00 56 1014.9
20260904193033 33 316 1.6 6.4 0.00 0.00 0.00 55 1015.2
20260904191532 33 0 0.0 3.2 0.00 0.00 0.00 57 1015.4
20260904190034 32 53 0.0 3.2 0.00 0.00 0.00 59 1015.6
20260904184533 33 26 0.0 9.7 0.00 0.00 0.00 57 1015.9
20260904183034 32 33 1.6 6.4 0.00 0.00 0.00 58 1016.0
20260904181534 32 82 0.0 4.8 0.00 0.00 0.00 60 1016.2
20260904180035 32 0 0.0 3.2 0.00 0.00 0.00 62 1016.3
20260904174533 32 44 0.0 3.2 0.00 0.00 0.00 63 1016.4
20260904173039 32 19 1.6 4.8 0.00 0.00 0.00 64 1016.8
20260904171537 31 0 0.0 6.4 0.00 0.00 0.00 64 1016.8
20260904170035 31 0 0.0 3.2 0.00 0.00 0.00 66 1016.9
20260904164536 31 0 0.0 4.8 0.00 0.00 0.00 68 1017.2
20260904163035 30 88 0.0 3.2 0.00 0.00 0.00 68 1017.2
20260904161535 30 142 0.0 3.2 0.00 0.00 0.00 69 1017.5
20260904160034 30 140 0.0 3.2 0.00 0.00 0.00 70 1017.7
20260904154534 29 54 0.0 3.2 0.00 0.00 0.00 73 1017.7
20260904153036 28 0 0.0 3.2 0.00 0.00 0.00 77 1017.7
20260904151534 28 0 0.0 1.6 0.00 0.00 0.00 80 1017.8
20260904150056 27 0 0.0 3.2 0.00 0.00 0.00 81 1017.7
20260904144536 27 15 0.0 6.4 0.00 0.00 0.00 84 1017.6
20260904143036 26 0 0.0 0.0 0.00 0.00 0.00 86 1017.5
20260904141533 25 0 0.0 0.0 0.00 0.00 0.00 88 1017.5
20260904140038 25 0 0.0 0.0 0.00 0.00 0.00 91 1017.6
20260904134543 24 0 0.0 1.6 0.00 0.00 0.00 94 1017.4
20260904133031 23 0 0.0 0.0 0.00 0.00 0.00 96 1017.5
20260904131533 23 0 0.0 0.0 0.00 0.00 0.00 97 1017.3